AUA26V EDDS-LOWW

Flight info

Callsign AUA26V
Flight time 1h 0m
Altitude 31000
Route ABTAL4H ABTAL L173 RIXED Y161 RIDAR Z98 MIQ L605 BIBAG Q104 AKIMA DCT MASUR MASUR3W
Aircraft A320/M-SDE3FGHIRWY/LB1

Departure

Time 2026-04-21 15:01
Airport Stuttgart Airport (EDDS)

Arrival

Time 2026-04-21 16:01
Airport Vienna International Airport (LOWW)
Time Latitude Longitude Altitude Speed Heading
2026-04-21 14:28 48.68896 9.19429 1286 ft 0 kts 344°
2026-04-21 14:50 48.68895 9.19429 1285 ft 1 kts 344°
2026-04-21 14:51 48.68872 9.19439 1287 ft 4 kts 346°
2026-04-21 14:51 48.68845 9.19447 1285 ft 4 kts 356°
2026-04-21 14:51 48.68821 9.19443 1285 ft 4 kts 50°
2026-04-21 14:51 48.68817 9.19435 1285 ft 0 kts 74°
2026-04-21 14:54 48.68821 9.19456 1288 ft 7 kts 74°
2026-04-21 14:54 48.68832 9.19518 1289 ft 6 kts 75°
2026-04-21 14:54 48.68852 9.19628 1287 ft 14 kts 73°
2026-04-21 14:54 48.68878 9.19764 1286 ft 12 kts 74°
2026-04-21 14:55 48.68869 9.19870 1285 ft 10 kts 142°
2026-04-21 14:55 48.68814 9.19916 1287 ft 8 kts 149°
2026-04-21 14:55 48.68768 9.19950 1285 ft 6 kts 160°
2026-04-21 14:55 48.68731 9.19969 1288 ft 5 kts 161°
2026-04-21 14:56 48.68720 9.19974 1285 ft 0 kts 166°
2026-04-21 14:58 48.68719 9.19974 1285 ft 1 kts 166°
2026-04-21 14:58 48.68682 9.19988 1285 ft 6 kts 166°
2026-04-21 14:58 48.68635 9.20014 1285 ft 12 kts 147°
2026-04-21 14:59 48.68593 9.20113 1285 ft 11 kts 84°
2026-04-21 14:59 48.68600 9.20150 1285 ft 0 kts 73°
2026-04-21 15:00 48.68601 9.20156 1285 ft 4 kts 73°
2026-04-21 15:00 48.68669 9.20510 1286 ft 72 kts 74°
2026-04-21 15:00 48.68869 9.21554 1286 ft 132 kts 74°
2026-04-21 15:00 48.69160 9.23066 1549 ft 150 kts 74°
2026-04-21 15:01 48.69425 9.24528 2214 ft 144 kts 74°
2026-04-21 15:01 48.69704 9.26022 2601 ft 158 kts 74°
2026-04-21 15:01 48.70032 9.27749 2760 ft 187 kts 73°
2026-04-21 15:01 48.70418 9.29766 3040 ft 212 kts 73°
2026-04-21 15:02 48.70852 9.32017 3451 ft 236 kts 73°
2026-04-21 15:02 48.71334 9.34507 4059 ft 252 kts 73°
2026-04-21 15:02 48.71830 9.37121 4951 ft 257 kts 73°
2026-04-21 15:02 48.72324 9.39756 5829 ft 262 kts 73°
2026-04-21 15:03 48.72824 9.42416 6693 ft 265 kts 73°
2026-04-21 15:03 48.73333 9.45114 7548 ft 268 kts 73°
2026-04-21 15:03 48.73843 9.47831 8416 ft 270 kts 74°
2026-04-21 15:03 48.74359 9.50591 9212 ft 274 kts 74°
2026-04-21 15:04 48.74883 9.53389 9978 ft 279 kts 74°
2026-04-21 15:04 48.75418 9.56256 10549 ft 292 kts 73°
2026-04-21 15:04 48.76003 9.59382 10800 ft 315 kts 73°
2026-04-21 15:04 48.76618 9.62673 11077 ft 335 kts 73°
2026-04-21 15:05 48.77249 9.66063 11656 ft 343 kts 73°
2026-04-21 15:05 48.78562 9.73125 12978 ft 353 kts 73°
2026-04-21 15:05 48.79230 9.76722 13655 ft 356 kts 73°
2026-04-21 15:06 48.79911 9.80382 14332 ft 360 kts 73°
2026-04-21 15:06 48.80585 9.84021 15001 ft 363 kts 73°
2026-04-21 15:06 48.81267 9.87717 15637 ft 366 kts 73°
2026-04-21 15:06 48.81952 9.91444 16258 ft 369 kts 73°
2026-04-21 15:07 48.82419 9.93989 16674 ft 371 kts 73°
2026-04-21 15:07 48.83113 9.97778 17278 ft 374 kts 73°
2026-04-21 15:07 48.84043 10.02888 18063 ft 377 kts 73°
2026-04-21 15:07 48.84505 10.05428 18467 ft 379 kts 73°
2026-04-21 15:08 48.85084 10.09342 19025 ft 382 kts 81°
2026-04-21 15:08 48.85151 10.14723 19736 ft 389 kts 95°
2026-04-21 15:08 48.84926 10.17485 20093 ft 392 kts 96°
2026-04-21 15:08 48.84587 10.21603 20616 ft 395 kts 96°
2026-04-21 15:09 48.84248 10.25764 21118 ft 399 kts 96°
2026-04-21 15:09 48.83908 10.29954 21600 ft 402 kts 96°
2026-04-21 15:09 48.83560 10.34193 22072 ft 406 kts 97°
2026-04-21 15:09 48.82931 10.38380 22509 ft 411 kts 107°
2026-04-21 15:10 48.81814 10.42381 22942 ft 415 kts 117°
2026-04-21 15:10 48.80231 10.46067 23352 ft 419 kts 128°
2026-04-21 15:10 48.78268 10.49354 23770 ft 422 kts 133°
2026-04-21 15:10 48.76232 10.52591 24165 ft 426 kts 133°
2026-04-21 15:11 48.74183 10.55857 24549 ft 429 kts 133°
2026-04-21 15:11 48.72138 10.59124 24897 ft 432 kts 133°
2026-04-21 15:11 48.70075 10.62421 25231 ft 436 kts 133°
2026-04-21 15:11 48.67976 10.65766 25557 ft 440 kts 134°
2026-04-21 15:12 48.65862 10.69128 25877 ft 443 kts 134°
2026-04-21 15:12 48.63722 10.72530 26201 ft 446 kts 133°
2026-04-21 15:12 48.61780 10.76198 26509 ft 450 kts 123°
2026-04-21 15:12 48.60254 10.80323 26799 ft 452 kts 113°
2026-04-21 15:13 48.59190 10.84808 27080 ft 454 kts 103°
2026-04-21 15:13 48.58630 10.89505 27360 ft 456 kts 93°
2026-04-21 15:13 48.58475 10.94296 27651 ft 458 kts 90°
2026-04-21 15:13 48.58350 10.99103 27931 ft 460 kts 90°
2026-04-21 15:14 48.58216 11.03971 28196 ft 463 kts 90°
2026-04-21 15:14 48.58075 11.08828 28463 ft 466 kts 90°
2026-04-21 15:14 48.57930 11.13719 28718 ft 468 kts 90°
2026-04-21 15:14 48.57799 11.18657 28977 ft 470 kts 90°
2026-04-21 15:15 48.57698 11.23657 29204 ft 473 kts 89°
2026-04-21 15:15 48.57618 11.28622 29426 ft 475 kts 89°
2026-04-21 15:15 48.57543 11.33682 29644 ft 478 kts 89°
2026-04-21 15:15 48.57464 11.38752 29867 ft 480 kts 89°
2026-04-21 15:16 48.57378 11.43765 30066 ft 483 kts 89°
2026-04-21 15:16 48.57276 11.48846 30268 ft 485 kts 90°
2026-04-21 15:16 48.57162 11.53947 30500 ft 486 kts 90°
2026-04-21 15:16 48.56984 11.59041 30798 ft 487 kts 95°
2026-04-21 15:17 48.56411 11.64040 31068 ft 488 kts 101°
2026-04-21 15:17 48.55684 11.69005 31147 ft 479 kts 101°
2026-04-21 15:17 48.54243 11.78810 31164 ft 470 kts 101°
2026-04-21 15:18 48.52856 11.88240 31167 ft 470 kts 101°
2026-04-21 15:18 48.51446 11.97835 31164 ft 470 kts 101°
2026-04-21 15:19 48.50016 12.07483 31164 ft 470 kts 102°
2026-04-21 15:19 48.48573 12.17077 31157 ft 469 kts 102°
2026-04-21 15:20 48.47123 12.26651 31156 ft 468 kts 102°
2026-04-21 15:20 48.45678 12.36207 31150 ft 468 kts 102°
2026-04-21 15:21 48.44228 12.45688 31150 ft 468 kts 102°
2026-04-21 15:21 48.42761 12.55224 31147 ft 467 kts 102°
2026-04-21 15:22 48.41303 12.64672 31151 ft 466 kts 102°
2026-04-21 15:22 48.39972 12.74183 31153 ft 464 kts 95°
2026-04-21 15:23 48.39993 12.83921 31146 ft 461 kts 85°
2026-04-21 15:23 48.40285 12.93492 31149 ft 461 kts 86°
2026-04-21 15:24 48.40549 13.03121 31149 ft 461 kts 86°
2026-04-21 15:24 48.40821 13.12754 31150 ft 460 kts 85°
2026-04-21 15:25 48.41097 13.22367 31151 ft 460 kts 86°
2026-04-21 15:25 48.41353 13.31985 31152 ft 460 kts 85°
2026-04-21 15:26 48.41816 13.41589 31152 ft 460 kts 83°
2026-04-21 15:26 48.42454 13.51104 31155 ft 460 kts 82°
2026-04-21 15:27 48.43065 13.60680 31156 ft 460 kts 83°
2026-04-21 15:27 48.43619 13.70272 31162 ft 461 kts 83°
2026-04-21 15:28 48.44138 13.79903 31157 ft 461 kts 83°
2026-04-21 15:28 48.44651 13.89535 31160 ft 461 kts 83°
2026-04-21 15:29 48.45168 13.99174 31166 ft 462 kts 83°
2026-04-21 15:29 48.45498 14.05296 31173 ft 462 kts 83°
2026-04-21 15:30 48.45753 14.10044 31174 ft 463 kts 83°
2026-04-21 15:30 48.45892 14.12663 31178 ft 463 kts 83°
2026-04-21 15:31 48.46094 14.17002 31173 ft 463 kts 84°
2026-04-21 15:31 48.46544 14.26085 31184 ft 464 kts 84°
2026-04-21 15:32 48.47001 14.35734 31190 ft 460 kts 84°
2026-04-21 15:32 48.47450 14.45344 31187 ft 459 kts 84°
2026-04-21 15:33 48.47902 14.54909 30487 ft 452 kts 84°
2026-04-21 15:33 48.48123 14.59561 29366 ft 450 kts 84°
2026-04-21 15:33 48.48343 14.64221 28442 ft 441 kts 84°
2026-04-21 15:34 48.48558 14.68791 27511 ft 433 kts 84°
2026-04-21 15:34 48.48769 14.73290 26586 ft 426 kts 84°
2026-04-21 15:34 48.48975 14.77709 25673 ft 419 kts 84°
2026-04-21 15:34 48.49178 14.82057 24770 ft 412 kts 84°
2026-04-21 15:35 48.49375 14.86308 23882 ft 405 kts 84°
2026-04-21 15:35 48.49567 14.90507 23008 ft 399 kts 84°
2026-04-21 15:35 48.49757 14.94671 22312 ft 397 kts 84°
2026-04-21 15:35 48.49953 14.98807 21890 ft 393 kts 84°
2026-04-21 15:36 48.50142 15.02812 21148 ft 386 kts 84°
2026-04-21 15:36 48.50342 15.06997 20550 ft 385 kts 84°
2026-04-21 15:36 48.50532 15.10968 20096 ft 382 kts 84°
2026-04-21 15:36 48.50721 15.14964 19633 ft 380 kts 84°
2026-04-21 15:37 48.50900 15.18861 19171 ft 377 kts 84°
2026-04-21 15:37 48.51077 15.22800 18697 ft 375 kts 84°
2026-04-21 15:37 48.51251 15.26700 18236 ft 372 kts 84°
2026-04-21 15:37 48.51424 15.30649 17764 ft 370 kts 84°
2026-04-21 15:38 48.51592 15.34516 17290 ft 369 kts 84°
2026-04-21 15:38 48.51758 15.38327 17128 ft 369 kts 84°
2026-04-21 15:38 48.51927 15.42189 17155 ft 370 kts 85°
2026-04-21 15:38 48.51901 15.46078 16937 ft 371 kts 93°
2026-04-21 15:39 48.51686 15.49934 16741 ft 370 kts 93°
2026-04-21 15:39 48.51468 15.53795 16538 ft 369 kts 93°
2026-04-21 15:39 48.51246 15.57647 16338 ft 368 kts 94°
2026-04-21 15:39 48.51025 15.61482 16137 ft 367 kts 93°
2026-04-21 15:40 48.50807 15.65310 15936 ft 366 kts 93°
2026-04-21 15:40 48.50591 15.69124 15736 ft 365 kts 93°
2026-04-21 15:40 48.50371 15.72935 15535 ft 364 kts 94°
2026-04-21 15:40 48.50149 15.76728 15335 ft 363 kts 94°
2026-04-21 15:41 48.49926 15.80506 15130 ft 361 kts 94°
2026-04-21 15:41 48.49701 15.84275 14938 ft 361 kts 93°
2026-04-21 15:41 48.49477 15.88034 14734 ft 360 kts 93°
2026-04-21 15:41 48.49252 15.91792 14532 ft 359 kts 93°
2026-04-21 15:42 48.49027 15.95529 14332 ft 357 kts 93°
2026-04-21 15:42 48.48806 15.99201 14131 ft 356 kts 93°
2026-04-21 15:42 48.48579 16.02918 13945 ft 355 kts 94°
2026-04-21 15:42 48.48353 16.06603 13750 ft 353 kts 94°
2026-04-21 15:43 48.48126 16.10292 13549 ft 352 kts 93°
2026-04-21 15:43 48.47938 16.13955 13349 ft 350 kts 92°
2026-04-21 15:43 48.47789 16.17679 13145 ft 349 kts 91°
2026-04-21 15:43 48.47663 16.21254 12948 ft 348 kts 91°
2026-04-21 15:44 48.47540 16.24912 12748 ft 346 kts 91°
2026-04-21 15:44 48.47417 16.28508 12546 ft 345 kts 91°
2026-04-21 15:44 48.47287 16.32113 12357 ft 344 kts 91°
2026-04-21 15:44 48.47150 16.35705 12167 ft 343 kts 91°
2026-04-21 15:45 48.47008 16.39238 11963 ft 341 kts 91°
2026-04-21 15:45 48.46864 16.42797 11763 ft 340 kts 91°
2026-04-21 15:45 48.46718 16.46352 11561 ft 339 kts 91°
2026-04-21 15:45 48.46418 16.49864 11357 ft 340 kts 103°
2026-04-21 15:46 48.45499 16.53141 11156 ft 341 kts 120°
2026-04-21 15:46 48.44000 16.55889 10954 ft 343 kts 137°
2026-04-21 15:46 48.42025 16.57903 10757 ft 343 kts 154°
2026-04-21 15:46 48.40029 16.58962 10587 ft 344 kts 164°
2026-04-21 15:47 48.37656 16.59950 10379 ft 343 kts 164°
2026-04-21 15:47 48.36135 16.60588 10242 ft 342 kts 164°
2026-04-21 15:47 48.34944 16.61052 10149 ft 342 kts 165°
2026-04-21 15:47 48.32731 16.61915 9964 ft 331 kts 164°
2026-04-21 15:48 48.30548 16.62834 9760 ft 320 kts 163°
2026-04-21 15:48 48.28466 16.63739 9562 ft 311 kts 163°
2026-04-21 15:48 48.26392 16.64643 9360 ft 302 kts 163°
2026-04-21 15:48 48.24390 16.65507 9155 ft 297 kts 163°
2026-04-21 15:49 48.22452 16.66333 8968 ft 295 kts 163°
2026-04-21 15:49 48.20440 16.67182 8761 ft 294 kts 163°
2026-04-21 15:49 48.18501 16.67998 8560 ft 293 kts 163°
2026-04-21 15:49 48.16538 16.68817 8360 ft 292 kts 163°
2026-04-21 15:50 48.14587 16.69629 8159 ft 291 kts 163°
2026-04-21 15:50 48.12641 16.70440 7963 ft 290 kts 163°
2026-04-21 15:50 48.10696 16.71251 7761 ft 289 kts 163°
2026-04-21 15:50 48.08760 16.72058 7421 ft 289 kts 163°
2026-04-21 15:51 48.06837 16.72856 7048 ft 286 kts 163°
2026-04-21 15:51 48.04929 16.73648 6674 ft 283 kts 163°
2026-04-21 15:51 48.03061 16.74425 6306 ft 281 kts 163°
2026-04-21 15:51 48.01193 16.75201 5929 ft 279 kts 163°
2026-04-21 15:52 47.99317 16.75977 5553 ft 277 kts 163°
2026-04-21 15:52 47.97443 16.76598 5165 ft 274 kts 176°
2026-04-21 15:52 47.95587 16.76379 4859 ft 263 kts 188°
2026-04-21 15:52 47.93802 16.76001 4608 ft 256 kts 188°
2026-04-21 15:53 47.92052 16.75634 4352 ft 251 kts 188°
2026-04-21 15:53 47.90337 16.75280 4104 ft 247 kts 188°
2026-04-21 15:53 47.88971 16.74998 3906 ft 243 kts 188°
2026-04-21 15:53 47.87521 16.74647 3691 ft 239 kts 197°
2026-04-21 15:54 47.86106 16.73464 3444 ft 234 kts 226°
2026-04-21 15:54 47.85184 16.71518 3192 ft 228 kts 252°
2026-04-21 15:54 47.84898 16.69252 3031 ft 221 kts 277°
2026-04-21 15:54 47.85249 16.67074 2991 ft 216 kts 300°
2026-04-21 15:55 47.86117 16.65346 2988 ft 200 kts 323°
2026-04-21 15:55 47.87250 16.64338 2985 ft 183 kts 343°
2026-04-21 15:55 47.88468 16.64014 2987 ft 178 kts
2026-04-21 15:55 47.89777 16.64359 3004 ft 207 kts 18°
2026-04-21 15:56 47.91162 16.65066 2998 ft 212 kts 18°
2026-04-21 15:56 47.92544 16.65640 2994 ft 199 kts
2026-04-21 15:56 47.93867 16.65444 2993 ft 184 kts 347°
2026-04-21 15:56 47.95032 16.64963 3025 ft 165 kts 346°
2026-04-21 15:57 47.96108 16.64509 3000 ft 157 kts 347°
2026-04-21 15:57 47.97152 16.64069 2895 ft 155 kts 348°
2026-04-21 15:57 47.98203 16.63628 2733 ft 158 kts 349°
2026-04-21 15:57 47.99224 16.63196 2558 ft 151 kts 350°
2026-04-21 15:58 48.00231 16.62773 2352 ft 151 kts 348°
2026-04-21 15:58 48.01258 16.62342 2152 ft 155 kts 346°
2026-04-21 15:58 48.02296 16.61904 1953 ft 155 kts 342°
2026-04-21 15:58 48.03327 16.61470 1745 ft 152 kts 340°
2026-04-21 15:59 48.04291 16.61064 1556 ft 138 kts 345°
2026-04-21 15:59 48.05199 16.60681 1369 ft 134 kts 345°
2026-04-21 15:59 48.06088 16.60308 1169 ft 132 kts 345°
2026-04-21 15:59 48.06966 16.59938 1010 ft 131 kts 345°
2026-04-21 16:00 48.07838 16.59574 844 ft 132 kts 344°
2026-04-21 16:00 48.08716 16.59196 693 ft 131 kts 345°
2026-04-21 16:00 48.09555 16.58835 619 ft 114 kts 345°
2026-04-21 16:00 48.10171 16.58583 616 ft 73 kts 345°
2026-04-21 16:01 48.10606 16.58399 614 ft 61 kts 344°
2026-04-21 16:01 48.10989 16.58242 609 ft 54 kts 345°
2026-04-21 16:01 48.11331 16.58091 620 ft 51 kts 344°
2026-04-21 16:01 48.11666 16.57950 609 ft 43 kts 343°
2026-04-21 16:02 48.11826 16.57849 609 ft 16 kts 316°
2026-04-21 16:02 48.11860 16.57689 609 ft 17 kts 263°
2026-04-21 16:02 48.11825 16.57514 609 ft 19 kts 253°
2026-04-21 16:02 48.11819 16.57319 609 ft 20 kts 294°
2026-04-21 16:03 48.11859 16.57143 609 ft 16 kts 284°
2026-04-21 16:03 48.11905 16.56987 609 ft 18 kts 296°
2026-04-21 16:03 48.11892 16.56898 609 ft 8 kts 206°
2026-04-21 16:03 48.11861 16.56875 609 ft 0 kts 206°
2026-04-21 16:04 48.11862 16.56876 609 ft 0 kts 206°
2026-04-21 16:04 48.11863 16.56877 609 ft 0 kts 206°